| time (UTC) | temp F | wind direction | speed knots | gust knots | rain 1hr in | rain 24hr in | rain mn in | humidity % | barometer mb |
| 20260906060104 | 66 | 256 | 1.7 | 4.3 | 0.00 | 0.00 | 0.00 | 87 | 1017.7 |
| 20260906054602 | 67 | 275 | 0.9 | 2.6 | 0.00 | 0.00 | 0.00 | 85 | 1017.9 |
| 20260906053101 | 68 | 275 | 1.7 | 3.5 | 0.00 | 0.00 | 0.00 | 84 | 1018.1 |
| 20260906051609 | 68 | 278 | 1.7 | 3.5 | 0.00 | 0.00 | 0.00 | 84 | 1018.2 |
| 20260906044600 | 67 | 311 | 1.7 | 6.1 | 0.00 | 0.00 | 0.00 | 85 | 1018.1 |
| 20260906043100 | 67 | 350 | 1.7 | 3.5 | 0.00 | 0.00 | 0.00 | 86 | 1018.0 |
| 20260906041614 | 67 | 252 | 0.9 | 1.7 | 0.00 | 0.00 | 0.00 | 86 | 1018.1 |
| 20260906040113 | 68 | 0 | 0.9 | 1.7 | 0.00 | 0.00 | 0.00 | 85 | 1018.5 |
| 20260906034559 | 68 | 0 | 0.0 | 6.1 | 0.00 | 0.00 | 0.00 | 84 | 1018.5 |
| 20260906033106 | 68 | 259 | 2.6 | 6.1 | 0.00 | 0.00 | 0.00 | 85 | 1018.7 |
| 20260906031600 | 67 | 265 | 2.6 | 5.2 | 0.00 | 0.00 | 0.00 | 87 | 1018.8 |
| 20260906030116 | 66 | 263 | 1.7 | 2.6 | 0.00 | 0.00 | 0.00 | 87 | 1018.6 |
| 20260906024627 | 67 | 0 | 0.9 | 1.7 | 0.00 | 0.00 | 0.00 | 86 | 1018.6 |
| 20260906023104 | 67 | 0 | 0.0 | 2.6 | 0.00 | 0.00 | 0.00 | 86 | 1018.2 |
| 20260906021600 | 67 | 263 | 1.7 | 3.5 | 0.00 | 0.00 | 0.00 | 86 | 1018.2 |
| 20260906020103 | 67 | 0 | 0.0 | 1.7 | 0.00 | 0.00 | 0.00 | 85 | 1018.5 |
| 20260906014609 | 68 | 268 | 0.0 | 2.6 | 0.00 | 0.00 | 0.00 | 85 | 1018.3 |
| 20260906013058 | 68 | 268 | 0.9 | 2.6 | 0.00 | 0.00 | 0.00 | 84 | 1018.3 |
| 20260906011602 | 69 | 268 | 0.9 | 2.6 | 0.00 | 0.00 | 0.00 | 82 | 1018.1 |
| 20260906010111 | 69 | 267 | 1.7 | 5.2 | 0.00 | 0.00 | 0.00 | 81 | 1017.9 |
| 20260906004607 | 69 | 280 | 1.7 | 3.5 | 0.00 | 0.00 | 0.00 | 80 | 1017.7 |
| 20260906003121 | 70 | 265 | 1.7 | 6.1 | 0.00 | 0.00 | 0.00 | 79 | 1017.4 |
| 20260906001614 | 70 | 251 | 1.7 | 6.1 | 0.00 | 0.00 | 0.00 | 80 | 1017.3 |
| 20260906000109 | 71 | 239 | 2.6 | 6.1 | 0.00 | 0.00 | 0.00 | 78 | 1017.3 |
| 20260905234608 | 72 | 273 | 0.9 | 2.6 | 0.00 | 0.00 | 0.00 | 78 | 1017.3 |
| 20260905233104 | 73 | 319 | 0.0 | 9.6 | 0.00 | 0.00 | 0.00 | 76 | 1017.4 |
| 20260905231601 | 73 | 24 | 1.7 | 12.2 | 0.00 | 0.00 | 0.00 | 75 | 1017.3 |
| 20260905230100 | 74 | 335 | 3.5 | 10.4 | 0.00 | 0.00 | 0.00 | 73 | 1017.2 |
| 20260905224602 | 75 | 311 | 4.3 | 12.2 | 0.00 | 0.00 | 0.00 | 71 | 1016.9 |
| 20260905223105 | 76 | 329 | 5.2 | 11.3 | 0.00 | 0.00 | 0.00 | 69 | 1017.2 |
| 20260905221602 | 77 | 293 | 4.3 | 11.3 | 0.00 | 0.00 | 0.00 | 69 | 1017.3 |
| 20260905220109 | 78 | 360 | 3.5 | 11.3 | 0.00 | 0.00 | 0.00 | 68 | 1017.0 |
| 20260905214602 | 78 | 326 | 3.5 | 13.9 | 0.00 | 0.00 | 0.00 | 69 | 1017.1 |
| 20260905213105 | 78 | 272 | 4.3 | 18.2 | 0.00 | 0.00 | 0.00 | 67 | 1017.1 |
| 20260905211607 | 79 | 257 | 3.5 | 7.8 | 0.00 | 0.00 | 0.00 | 66 | 1017.0 |
| 20260905210108 | 80 | 317 | 4.3 | 8.7 | 0.00 | 0.00 | 0.00 | 69 | 1017.1 |
| 20260905204609 | 79 | 263 | 4.3 | 13.0 | 0.00 | 0.00 | 0.00 | 68 | 1017.1 |
| 20260905203101 | 78 | 279 | 3.5 | 11.3 | 0.00 | 0.00 | 0.00 | 70 | 1016.9 |
| 20260905201604 | 77 | 267 | 2.6 | 7.8 | 0.00 | 0.00 | 0.00 | 71 | 1017.1 |
| 20260905200109 | 75 | 270 | 2.6 | 7.8 | 0.00 | 0.00 | 0.00 | 74 | 1017.4 |
| 20260905194604 | 73 | 272 | 3.5 | 9.6 | 0.00 | 0.00 | 0.00 | 75 | 1017.4 |
| 20260905193125 | 72 | 352 | 2.6 | 10.4 | 0.00 | 0.00 | 0.00 | 77 | 1017.3 |
| 20260905191606 | 71 | 348 | 2.6 | 12.2 | 0.00 | 0.00 | 0.00 | 79 | 1017.5 |
| 20260905190103 | 71 | 252 | 3.5 | 9.6 | 0.00 | 0.00 | 0.00 | 78 | 1017.7 |
| 20260905184611 | 69 | 277 | 2.6 | 6.1 | 0.00 | 0.00 | 0.00 | 80 | 1017.7 |
| 20260905183107 | 69 | 329 | 1.7 | 8.7 | 0.00 | 0.00 | 0.00 | 82 | 1017.3 |
| 20260905181605 | 69 | 258 | 4.3 | 9.6 | 0.00 | 0.00 | 0.00 | 81 | 1017.7 |
| 20260905174559 | 72 | 251 | 4.3 | 12.2 | 0.00 | 0.00 | 0.00 | 75 | 1019.5 |
| 20260905173103 | 74 | 267 | 4.3 | 12.2 | 0.00 | 0.00 | 0.00 | 74 | 1019.5 |
| 20260905171604 | 76 | 10 | 3.5 | 13.0 | 0.00 | 0.00 | 0.00 | 77 | 1019.9 |
| 20260905170101 | 77 | 323 | 5.2 | 13.0 | 0.00 | 0.00 | 0.00 | 74 | 1020.3 |
| 20260905164606 | 78 | 13 | 1.7 | 12.2 | 0.00 | 0.00 | 0.00 | 72 | 1020.2 |
| 20260905163106 | 80 | 360 | 2.6 | 10.4 | 0.00 | 0.00 | 0.00 | 69 | 1020.2 |
| 20260905161619 | 79 | 26 | 3.5 | 11.3 | 0.00 | 0.00 | 0.00 | 69 | 1020.0 |
| 20260905160107 | 80 | 338 | 2.6 | 7.8 | 0.00 | 0.00 | 0.00 | 71 | 1020.3 |
| 20260905154605 | 79 | 302 | 4.3 | 13.9 | 0.00 | 0.00 | 0.00 | 70 | 1020.4 |
| 20260905153107 | 80 | 275 | 3.5 | 12.2 | 0.00 | 0.00 | 0.00 | 68 | 1020.3 |
| 20260905151605 | 80 | 321 | 4.3 | 12.2 | 0.00 | 0.00 | 0.00 | 69 | 1020.0 |
| 20260905150104 | 79 | 273 | 5.2 | 11.3 | 0.00 | 0.00 | 0.00 | 71 | 1019.7 |
| 20260905144604 | 79 | 265 | 2.6 | 13.9 | 0.00 | 0.00 | 0.00 | 73 | 1019.8 |
| 20260905143108 | 78 | 333 | 4.3 | 12.2 | 0.00 | 0.00 | 0.00 | 74 | 1019.6 |
| 20260905141602 | 78 | 296 | 3.5 | 12.2 | 0.00 | 0.00 | 0.00 | 75 | 1019.6 |
| 20260905134608 | 77 | 249 | 4.3 | 12.2 | 0.00 | 0.00 | 0.00 | 77 | 1019.5 |
| 20260905133101 | 76 | 16 | 4.3 | 10.4 | 0.00 | 0.00 | 0.00 | 79 | 1019.6 |
| 20260905131605 | 75 | 284 | 3.5 | 9.6 | 0.00 | 0.00 | 0.00 | 81 | 1019.9 |
| 20260905124605 | 74 | 313 | 2.6 | 9.6 | 0.00 | 0.00 | 0.00 | 82 | 1019.9 |
| 20260905123105 | 73 | 335 | 3.5 | 10.4 | 0.00 | 0.00 | 0.00 | 82 | 1019.9 |
| 20260905121602 | 72 | 251 | 4.3 | 11.3 | 0.00 | 0.00 | 0.00 | 83 | 1019.8 |
| 20260905120107 | 72 | 248 | 3.5 | 9.6 | 0.00 | 0.00 | 0.00 | 85 | 1019.6 |
| 20260905114603 | 71 | 9 | 1.7 | 7.0 | 0.00 | 0.00 | 0.00 | 86 | 1019.4 |
| 20260905113105 | 71 | 315 | 2.6 | 7.0 | 0.00 | 0.00 | 0.00 | 86 | 1019.4 |
| 20260905111646 | 70 | 273 | 2.6 | 7.0 | 0.00 | 0.00 | 0.00 | 87 | 1019.2 |
| 20260905104603 | 70 | 296 | 2.6 | 7.0 | 0.00 | 0.00 | 0.00 | 88 | 1018.9 |
| 20260905103105 | 70 | 259 | 2.6 | 6.1 | 0.00 | 0.00 | 0.00 | 88 | 1018.9 |
| 20260905101603 | 70 | 248 | 1.7 | 6.1 | 0.00 | 0.00 | 0.00 | 88 | 1018.9 |
| 20260905100110 | 70 | 281 | 1.7 | 7.0 | 0.00 | 0.00 | 0.00 | 88 | 1018.7 |
| 20260905094604 | 69 | 251 | 2.6 | 6.1 | 0.00 | 0.00 | 0.00 | 89 | 1018.8 |
| 20260905093103 | 69 | 279 | 1.7 | 5.2 | 0.00 | 0.00 | 0.00 | 89 | 1018.8 |
| 20260905091610 | 69 | 266 | 1.7 | 6.1 | 0.00 | 0.00 | 0.00 | 89 | 1018.7 |
| 20260905084602 | 69 | 254 | 0.0 | 3.5 | 0.00 | 0.00 | 0.00 | 89 | 1018.9 |
| 20260905083059 | 69 | 0 | 0.9 | 6.1 | 0.00 | 0.00 | 0.00 | 88 | 1019.2 |
| 20260905081607 | 69 | 0 | 0.0 | 2.6 | 0.00 | 0.00 | 0.00 | 89 | 1019.3 |
| 20260905080105 | 69 | 250 | 0.9 | 3.5 | 0.00 | 0.00 | 0.00 | 89 | 1019.2 |
| 20260905074601 | 69 | 259 | 0.9 | 2.6 | 0.00 | 0.00 | 0.00 | 90 | 1019.7 |
| 20260905073102 | 69 | 241 | 0.0 | 1.7 | 0.00 | 0.00 | 0.00 | 90 | 1019.6 |
| 20260905071603 | 69 | 241 | 0.9 | 3.5 | 0.00 | 0.00 | 0.00 | 90 | 1019.7 |
| 20260905070108 | 69 | 0 | 0.9 | 1.7 | 0.00 | 0.00 | 0.00 | 90 | 1019.9 |
| 20260905064602 | 69 | 0 | 0.0 | 2.6 | 0.00 | 0.00 | 0.00 | 90 | 1020.1 |
| 20260905063104 | 69 | 0 | 0.9 | 3.5 | 0.00 | 0.00 | 0.00 | 90 | 1020.3 |
| 20260905061613 | 69 | 283 | 0.9 | 1.7 | 0.00 | 0.00 | 0.00 | 90 | 1020.3 |